Location: Acorn Hill
(36.4429°N, 76.5469°W)
Time: 08:37:06
(UTC+00:00)

BlueWalker 3 - Pass Details

Date: 11 December 2022
Orbit: 499 x 517 km, 53.2° (Epoch: 05 February)

Event Time Altitude Azimuth Distance (km) Brightness Sun altitude
Rises 22:57:17 0° 316° (NW) 2,621 5.9 -13.0°
Reaches altitude 10° 22:59:31 10° 321° (NW) 1,729 4.9 -13.4°
Maximum altitude 23:03:22 57° 41° (NE) 601 2.0 -14.2°
Enters shadow 23:06:10 17° 116° (ESE) 1,317 3.6 -14.7°
